Home > Weather > Rotterdam > Past weeks

Flag for Netherlands Weather for the Past 2 Weeks in Rotterdam, Netherlands

Now
46 °F

Passing clouds.


Feels Like: 40 °F
Forecast: 42 / 51 °F
Wind: 14 mph from Southwest

Location: Rotterdam Zestienhoven Airport

Current Time: Apr 29, 2016 at 10:40:37 PM

Latest Report: Apr 29, 2016 at 9:55 PM


Visibility: N/A

Pressure: 29.92 "Hg

Humidity: 76%

Dew Point: 39 °F

Location of RotterdamLocation

Historic Weather in Rotterdam — Graph

°F

Rotterdam Temperature Yesterday

Maximum temperature yesterday: 48 °F (at 4:25 PM)
Minimum temperature yesterday: 34 °F (at 3:25 AM)
Average temperature yesterday: 43 °F

High & Low Weather Summary for the Past Weeks

 TemperatureHumidityPressure
High61 °F (Apr 21, 3:55 PM)100% (Apr 15, 11:55 PM)30.48 "Hg (Apr 15, 11:55 PM)
Low34 °F (Apr 25, 2:25 AM)48% (Apr 14, 8:25 PM)29.39 "Hg (Apr 16, 2:25 AM)
Average46 °F77%29.93 "Hg
* Reported Apr 14 8:25 PM — Apr 29 8:55 PM, Rotterdam, Weather by CustomWeather, © 2016

Note: Actual official high and low records may vary slightly from our data, if they occured in-between our weather recording intervals... More about our weather records

Advertising

Rotterdam Weather History for the Previous 24 Hours

Scroll right to see more
 ConditionsComfort  
Time TempWeatherWind HumidityBarometerVisibility
8:55 PM
Fri, Apr 29
48 °FClear.16 mph66%29.89 "HgN/A
8:25 PM48 °FPassing clouds.18 mph66%29.89 "HgN/A
7:55 PM50 °FPassing clouds.18 mph58%29.89 "HgN/A
7:25 PM50 °FClear.21 mph54%29.89 "HgN/A
6:55 PM50 °FClear.20 mph58%29.89 "HgN/A
6:25 PM52 °FPassing clouds.21 mph50%29.86 "HgN/A
5:55 PM52 °FClear.21 mph50%29.86 "HgN/A
5:25 PM52 °FBroken clouds.16 mph58%29.86 "HgN/A
4:55 PM50 °FMostly cloudy.15 mph67%29.86 "HgN/A
4:25 PM50 °FLight rain. Scattered clouds.21 mph71%29.86 "HgN/A
3:55 PM52 °FScattered clouds.15 mph62%29.86 "HgN/A
3:25 PM52 °FScattered clouds.21 mph58%29.86 "HgN/A
2:55 PM52 °FScattered clouds.17 mph54%29.86 "HgN/A
2:25 PM50 °FClear.23 mph54%29.86 "HgN/A
1:55 PM50 °FClear.22 mph58%29.86 "HgN/A
1:25 PM50 °FClear.23 mph54%29.86 "HgN/A
12:55 PM50 °FPassing clouds.24 mph54%29.86 "HgN/A
12:25 PM50 °FPassing clouds.25 mph54%29.83 "HgN/A
11:55 AM48 °FPartly sunny.16 mph66%29.83 "HgN/A
11:25 AM48 °FBroken clouds.17 mph71%29.83 "HgN/A
10:55 AM48 °FBroken clouds.21 mph76%29.83 "HgN/A
10:25 AM46 °FPartly sunny.17 mph82%29.83 "HgN/A
9:55 AM46 °FScattered clouds.16 mph82%29.80 "HgN/A
9:25 AM43 °FLight rain. Broken clouds.10 mph93%29.83 "HgN/A
8:55 AM43 °FRain. Mostly cloudy.5 mph93%29.80 "Hg5 mi
8:25 AM43 °FLight rain. Mostly cloudy.13 mph93%29.80 "HgN/A
7:55 AM43 °FLight rain. Cloudy.18 mph93%29.80 "HgN/A
7:25 AM43 °FLight rain. Partly sunny.20 mph87%29.80 "HgN/A
6:55 AM43 °FLight rain. Mostly cloudy.13 mph93%29.80 "Hg6 mi
6:25 AM43 °FSprinkles. Partly cloudy.18 mph87%29.80 "HgN/A
5:55 AM45 °FMostly cloudy.17 mph76%29.77 "HgN/A
5:25 AM45 °FPassing clouds.17 mph76%29.77 "HgN/A
3:25 AM45 °FPassing clouds.15 mph66%29.83 "HgN/A
2:55 AM45 °FClear.14 mph66%29.83 "HgN/A
2:25 AM43 °FClear.14 mph71%29.83 "HgN/A
1:55 AM43 °FPassing clouds.12 mph71%29.86 "HgN/A
1:25 AM43 °FClear.9 mph71%29.86 "HgN/A
12:55 AM43 °FClear.10 mph71%29.89 "HgN/A
12:25 AM43 °FClear.10 mph71%29.89 "HgN/A
11:55 PM
Thu, Apr 28
43 °FClear.10 mph66%29.89 "HgN/A
10:55 PM41 °FQuite cool.9 mph76%29.92 "HgN/A
10:25 PM43 °FClear.7 mph71%29.92 "HgN/A
Weather by CustomWeather, © 2016

See weather overviewHow to use our weather pages